Regional Weather Roundup
Issued by NWS

Home | Current Version | Previous Version | Graphics & Text | Print | Product List | Glossary On
Versions: 1 2 3 4 5 6 7 8 9 10 11 12 13 14 15 16 17 18 19 20 21 22 23 24 25 26 27 28 29 30 31 32 33 34 35 36 37 38 39 40 41 42 43 44 45 46 47 48 49 50
000
ASUS45 KTFX 040710
RWRMT
MONTANA REGIONAL WEATHER ROUNDUP
NATIONAL WEATHER SERVICE GREAT FALLS MT
100 AM MDT SAT JUL 04 2015

NOTE: "FAIR" INDICATES FEW OR NO CLOUDS BELOW 12000 FEET WITH NO
SIGNIFICANT WEATHER AND/OR OBSTRUCTIONS TO VISIBILITY.

MTZ001>007-043-040800-
WEST OF THE DIVIDE

CITY           SKY/WX    TMP DP  RH WIND       PRES   REMARKS
KALISPELL      SUNNY     61  48  62 CALM      29.82S
MISSOULA       CLEAR     71  44  37 CALM      29.88R
BUTTE          CLEAR     61  39  44 S6        30.03F
MULLAN PASS    CLEAR     70  34  26 VRB5      30.08F
DEER LODGE       N/A     64  43  45 CALM      30.00S
EUREKA           N/A     70  46  43 S3        29.79S
HAMILTON         N/A     70  46  43 S5        29.91S
PLAINS           N/A     67  45  45 CALM      29.85S
RONAN            N/A     66  51  58 CALM      29.91S
THOMPSON FALLS   N/A     68  47  46 S1        29.89R
$$

MTZ008-052>055-040800-
SOUTHWEST MONTANA

CITY           SKY/WX    TMP DP  RH WIND       PRES   REMARKS
BOZEMAN        CLEAR     65  48  54 S10       29.93S
DILLON         CLEAR     63  39  41 S9        29.99S
W YELLOWSTONE  CLEAR     50  45  81 CALM      30.10S
THREE FORKS      N/A     62  57  83 CALM      29.93R
$$

MTZ009-010-012-014-046-048-049-054-040800-
EAST SLOPES AND CENTRAL MONTANA

CITY           SKY/WX    TMP DP  RH WIND       PRES   REMARKS
CUT BANK       CLEAR     68  47  46 SW5       29.85S
GREAT FALLS    PTCLDY    68  49  50 SW10      29.84R
MALMSTROM AFB  PTCLDY    68  50  51 SW7       29.83S
HELENA         CLEAR     74  40  29 W5        29.89S
CONRAD           N/A     58  53  83 CALM      29.89S
$$

MTZ011-013-016-021-045-047-050-051-040800-
NORTH CENTRAL MONTANA

CITY           SKY/WX    TMP DP  RH WIND       PRES   REMARKS
HAVRE          CLEAR     67  48  50 S7        29.75S
LEWISTOWN      PTCLDY    67  51  56 E8        29.88F
CHINOOK          N/A     81  48  32 S13       29.73F
FORT BENTON      N/A     73  48  40 CALM      29.78S
$$

MTZ017>020-022>027-061-062-040800-
NORTHEAST MONTANA

CITY           SKY/WX    TMP DP  RH WIND       PRES   REMARKS
GLASGOW        CLEAR     67  57  70 E14       29.76F
JORDAN           N/A     69  50  50 S5        29.81F
SIDNEY         CLEAR     66  61  82 S5        29.82F
WOLF POINT     CLEAR     68  60  75 NE3       29.79F HAZE
PLENTYWOOD       N/A     66  63  88 E6        29.81F
POPLAR           N/A    N/A N/A N/A E7        29.79F
SCOBEY           N/A     66  58  75 S5        29.80F
$$

MTZ028>42-056>058-040800-
SOUTHCENTRAL AND SOUTHEAST MONTANA

CITY           SKY/WX    TMP DP  RH WIND       PRES   REMARKS
BAKER          PTCLDY    64  59  83 SE6       29.88F
BILLINGS       CLEAR     74  50  42 N7        29.87S
LIVINGSTON     CLEAR     60  46  59 SW3       29.94S
MILES CITY     PTCLDY    71  60  68 S8        29.81F
EKALAKA          N/A     67  56  67 E10       29.90F
FORSYTH          N/A     73  54  49 CALM      29.81F
LAUREL           N/A     72  51  47 N2        29.87S
ROUNDUP          N/A     73  47  39 CALM      29.80F
$$

REGIONAL REPORTS...DAKOTAS

CITY           SKY/WX    TMP DP  RH WIND       PRES   REMARKS
WILLISTON      CLEAR     73  63  70 S8        29.82F
MINOT          CLEAR     64  61  90 CALM      29.84F FOG
DICKINSON      CLEAR     66  62  87 S9        29.87F FOG
BEACH          FAIR      64  64 100 SE12      29.87F
CROSBY         FAIR      66  66 100 S9        29.82S FOG
BISMARCK       CLOUDY    64  63  96 SE3       29.89F FOG
GRAND FORKS    MOCLDY    59  57  94 S3        29.89S FOG
FARGO          CLEAR     64  60  87 SE5       29.90S FOG
BUFFALO SD       N/A     65  59  81 SE12      29.85F
RAPID CITY     PTCLDY    63  59  87 S5        29.94F
$$

REGIONAL REPORTS...WYOMING/IDAHO/WASHINGTON

CITY           SKY/WX    TMP DP  RH WIND       PRES   REMARKS
GILLETTE       PTCLDY    70  56  61 S15       29.94F
SHERIDAN       CLEAR     64  56  75 CALM      29.89F
BUFFALO WY     PTCLDY    67  54  63 S3        29.98F
CODY           CLEAR     70  52  52 SW6       29.98S
YELLOWSTONE LA   N/A     50  41  71 CALM      30.21F
IDAHO FALLS    PTCLDY    70  54  56 SW7       29.93R
SALMON         CLEAR     66  39  37 CALM      29.92S
BOISE          MOCLDY    82  41  23 SE5       29.82S
SPOKANE        PTCLDY    83  35  18 SW12      29.79S
$$

REGIONAL REPORTS...ALBERTA

CITY           SKY/WX    TMP DP  RH WIND       PRES   REMARKS
EDMONTON       CLEAR     55  39  54 SW5       29.87R
CALGARY        PTCLDY    63  50  63 N9        29.90R
LETHBRIDGE     CLEAR     61  55  82 W5        29.78S
MEDICINE HAT   CLEAR     68  57  68 E3        29.74R
WATERTON GATE    N/A     61  45  55 S6          N/A
MILK RIVER       N/A     59  52  77 W5          N/A
ONEFOUR          N/A     63  45  51 SE8         N/A
$$

REGIONAL REPORTS...SASKATCHEWAN

CITY           SKY/WX    TMP DP  RH WIND       PRES   REMARKS
SWIFT CURRENT  CLEAR     70  52  52 N13G18    29.76R
REGINA         LGT RAIN  68  63  83 SE10      29.76F SMOKE
SASKATOON      CLOUDY    66  59  77 CALM      29.75R
CYPRESS HILLS    N/A     66  39  37 NW3         N/A
ASSINIBOIA       N/A     59  52  77 SW6         N/A
$$


USA.gov is the U.S. government's official web portal to all federal, state and local government web resources and services.